Back to catalog

USA 444

AliveMilitaryVLEO
NORAD 62343·PAYLOAD·🇺🇸 United States

Launched Dec 17, 2024 from Vandenberg Space Force Base

Loading…

Next Passes (next 24 hours)

TLE

StaleSource: Mike McCants

Epoch: Aug 20, 2026, 20:34 UTC

1 62343U 24243D   26232.85758192 0.00000000  00000-0  00000-0 0    06
2 62343  70.0211 134.7366 0003000 156.3305 203.6695 14.96713680    03

Track USA 444 in real time with AllMySat

Download on the App Store